CAPE
0 0 0 0 0 0 2 14 12 0 0 3 2 11 1 16 387 114 404 1028 498 894 1218 843 416 276 229 262 412 551 596 553 483 410 385 381 382 375 340 342 417 531 605 642 664 668 666 625 569
0 0 0 0 0 0 2 29 0 0 0 0 0 0 0 9 273 525 916 651 626 1011 1051 830 574 449 397 325 272 246 262 265 265 271 288 286 276 264 240 216 209 241 302 375 441 470 482 461 475
0 0 0 0 0 0 4 28 0 0 10 61 177 145 508 148 422 747 676 767 958 943 1116 988 712 627 629 566 518 545 548 529 548 580 538 441 376 353 309 279 284 320 329 304 304 293 224 227 259
0 0 0 0 0 12 36 14 0 0 0 41 447 699 1367 588 574 934 1300 1242 838 872 1042 985 894 873 795 784 814 776 562 500 627 539 364 304 295 353 420 517 466 465 461 383 325 253 228 188 207
0 0 0 0 0 5 35 11 4 23 0 101 497 616 1132 1546 1291 1521 1544 952 608 784 1030 918 809 820 883 844 241 4 0 0 0 0 0 6 6 29 167 0 0 0 3 48 129 92 175 304 262
0 0 0 0 0 2 12 2 24 52 37 566 714 725 1077 1580 1639 1732 1281 723 833 606 896 1012 1028 992 336 0 0 0 0 0 0 0 0 0 0 0 0 0 0 0 0 0 0 0 0 0 0
0 0 0 0 0 0 0 0 1 1 469 784 644 547 940 1553 1565 1491 680 786 772 820 900 822 416 53 4 3 0 0 0 0 0 0 0 0 0 0 0 0 0 0 0 0 0 0 0 0 0
0 0 0 0 0 0 0 0 9 18 634 535 749 362 725 1419 1304 865 723 718 805 737 284 102 20 7 15 49 38 0 0 0 0 0 0 0 0 0 0 0 0 0 0 0 0 0 0 0 0
0 0 0 0 0 0 0 0 0 1 251 485 696 567 720 1468 868 766 639 710 484 144 3 0 0 0 0 21 85 16 0 0 0 0 0 0 0 0 0 0 0 0 0 0 0 0 0 0 0
0 0 0 0 0 0 0 10 0 3 5 40 694 565 1038 1220 479 722 688 332 8 0 0 0 0 0 0 0 0 0 0 0 0 0 0 0 0 0 0 0 0 0 0 0 0 0 0 0 0
0 0 0 0 0 0 0 13 0 0 0 0 545 509 1336 1036 110 829 832 298 0 0 0 0 0 0 0 0 0 0 0 0 0 0 0 0 0 0 0 0 0 0 0 0 0 0 0 0 0
0 0 0 0 0 0 0 0 0 6 5 281 758 557 1304 1051 319 755 704 200 0 0 0 0 0 0 0 0 0 0 0 0 0 0 0 0 0 0 0 0 0 0 0 0 0 0 0 0 0
0 0 0 0 0 0 0 0 0 7 346 851 847 1163 1204 1003 771 1110 148 38 0 0 0 0 0 0 0 0 0 0 0 0 0 0 0 0 0 0 0 0 0 0 0 0 0 0 0 0 0
0 0 0 0 0 0 0 0 0 6 550 485 820 1246 1318 1109 541 232 48 0 0 0 0 0 0 0 0 0 0 0 0 0 0 0 0 0 0 0 0 0 0 0 0 0 0 0 0 0 0
0 0 0 0 0 0 0 0 0 101 601 243 164 791 974 402 209 423 69 0 0 0 0 0 0 0 0 0 0 0 0 0 0 0 0 0 0 0 0 0 0 0 0 0 0 0 0 0 0
0 0 0 0 0 0 0 0 0 77 472 319 70 61 374 270 185 111 1 0 0 0 0 0 0 0 0 0 0 0 0 0 0 0 0 0 0 0 0 0 0 0 0 0 0 0 0 0 0
0 0 0 0 0 0 0 0 0 85 352 209 160 79 73 64 23 55 19 0 0 0 0 0 0 0 0 0 0 0 0 0 0 0 0 0 0 0 0 0 0 0 0 0 0 0 0 0 0
0 0 0 0 0 0 0 0 0 2 199 138 108 70 42 75 90 92 58 0 0 0 0 0 0 0 0 0 0 0 0 0 0 0 0 0 0 0 0 0 0 0 0 0 0 0 0 0 0
0 0 0 0 0 0 0 0 0 0 0 0 1 31 47 102 157 122 68 0 0 0 0 0 0 0 0 0 0 0 0 0 0 0 0 0 0 0 0 0 0 0 0 0 0 0 0 0 0
0 0 0 0 0 0 0 0 0 0 0 0 0 29 95 163 177 159 62 0 0 0 0 0 0 0 0 0 0 0 0 0 0 0 0 0 0 0 0 0 0 0 0 0 0 0 0 0 0
0 0 0 0 0 0 0 0 4 2 1 17 0 4 140 246 237 131 34 0 0 0 0 0 0 0 0 0 0 0 0 0 0 0 0 0 0 0 0 0 0 0 0 0 0 0 0 5 3
0 0 0 0 0 0 0 0 0 0 1 62 99 105 302 325 248 82 3 0 6 1 0 0 0 0 0 0 0 0 0 0 0 0 0 0 0 0 0 0 0 0 0 0 0 0 0 2 0
0 0 0 0 0 0 0 0 0 0 0 0 218 261 274 321 197 44 2 0 0 0 0 0 0 0 0 0 0 0 0 0 0 0 0 0 0 0 0 0 0 0 0 0 3 0 0 0 1
0 0 0 0 0 0 0 0 0 0 0 20 150 263 218 257 217 152 12 0 0 0 0 0 0 0 0 0 0 0 0 0 0 0 0 0 0 0 0 0 0 0 0 0 5 0 0 0 0
0 0 0 0 0 0 0 0 0 0 0 65 163 245 209 156 101 10 0 0 0 0 0 0 0 0 0 0 0 0 0 0 0 0 0 0 0 0 0 0 0 0 1 3 0 0 0 0 0
0 0 0 0 0 0 0 0 0 0 8 64 70 105 13 0 0 0 0 0 0 0 0 0 0 0 0 0 0 0 0 0 0 0 0 0 0 0 0 0 0 2 2 0 0 0 0 0 0
0 0 0 0 0 0 0 0 0 0 0 0 0 0 0 0 0 0 0 0 0 0 0 0 0 0 0 0 0 0 0 0 0 0 0 0 0 0 0 0 0 0 0 0 0 0 2 0 2
0 0 0 0 0 0 0 0 0 0 0 0 0 0 0 0 0 0 0 0 0 0 0 0 0 0 0 0 0 0 0 0 0 0 0 0 0 0 0 0 0 0 0 0 0 0 2 3 4
0 0 0 0 0 0 0 0 0 0 0 0 0 0 0 0 0 0 0 0 0 0 0 0 0 0 0 0 0 0 0 0 0 0 0 0 0 0 0 0 0 0 0 0 1 1 4 3 0
0 0 0 0 0 0 0 0 0 0 0 0 0 0 0 0 0 0 0 0 0 0 0 0 0 0 0 0 0 0 0 0 0 0 0 0 0 0 0 0 0 0 0 0 1 2 0 1 0
CIN
0 0 0 0 0 0 -61 -146 -181 0 0 0 -22 -36 -34 -67 -38 -136 -234 -110 -170 -128 -79 -109 -166 -212 -239 -242 -200 -163 -137 -136 -150 -164 -167 -164 -157 -150 -158 -139 -100 -74 -61 -56 -50 -44 -42 -42 -47
0 0 0 0 0 0 -86 -192 0 0 0 0 0 0 0 -76 -163 -231 -145 -200 -175 -124 -90 -113 -154 -181 -191 -204 -229 -234 -224 -204 -194 -189 -180 -174 -171 -159 -159 -159 -146 -125 -102 -82 -71 -68 -63 -67 -61
0 0 0 0 0 0 -99 -172 0 0 -312 -200 -79 -123 -36 -109 -183 -174 -207 -215 -144 -122 -81 -108 -140 -149 -137 -142 -150 -143 -135 -132 -122 -115 -114 -121 -133 -131 -125 -115 -109 -95 -93 -94 -83 -75 -96 -88 -87
0 0 0 0 0 -121 -116 -159 -1 0 -5 -277 -74 -30 -32 -101 -160 -133 -94 -94 -145 -139 -115 -117 -128 -132 -132 -123 -108 -114 -142 -140 -108 -110 -130 -140 -138 -125 -97 -83 -74 -65 -63 -75 -83 -99 -103 -103 -96
0 0 0 0 0 -35 -182 -191 -250 -179 0 -132 -88 -49 -35 -68 -115 -113 -85 -126 -173 -152 -113 -135 -138 -139 -129 -126 -233 -101 0 0 0 0 0 -253 -281 -289 -169 0 0 0 -260 -218 -155 -171 -125 -79 -80
0 0 0 0 0 -90 -159 -105 -212 -179 -175 -77 -73 -79 -70 -84 -110 -92 -126 -183 -156 -171 -150 -124 -118 -118 -205 0 0 0 0 0 0 0 0 0 0 0 0 0 0 0 0 0 0 0 0 0 0
0 0 0 0 0 0 0 0 -155 -38 -94 -55 -80 -93 -124 -93 -114 -132 -197 -156 -166 -163 -149 -154 -213 -328 -329 -337 0 0 0 0 0 0 0 0 0 0 0 0 0 0 0 0 0 0 0 0 0
0 0 0 0 0 0 0 0 -160 -140 -76 -141 -91 -78 -121 -102 -145 -215 -202 -181 -166 -190 -307 -388 -445 -493 -430 -335 -319 -8 0 0 0 0 0 0 0 0 0 0 0 0 0 0 0 0 0 0 0
0 0 0 0 0 0 0 0 0 -38 -110 -120 -113 -117 -123 -179 -270 -272 -252 -215 -262 -409 -459 0 0 0 0 -401 -295 -307 0 0 0 0 0 0 0 0 0 0 0 0 0 0 0 0 0 0 0
0 0 0 0 0 0 0 -122 -1 -98 -32 -159 -74 -113 -135 -199 -322 -266 -267 -309 -477 0 0 0 0 0 0 0 0 0 0 0 0 0 0 0 0 0 0 0 0 0 0 0 0 0 0 0 0
0 0 0 0 0 0 0 -135 -25 0 0 0 -73 -115 -121 -190 -414 -234 -266 -417 0 0 0 0 0 0 0 0 0 0 0 0 0 0 0 0 0 0 0 0 0 0 0 0 0 0 0 0 0
0 0 0 0 0 0 0 0 0 -82 -11 -74 -98 -113 -142 -174 -316 -224 -297 -456 0 0 0 0 0 0 0 0 0 0 0 0 0 0 0 0 0 0 0 0 0 0 0 0 0 0 0 0 0
0 0 0 0 0 0 0 0 0 -22 -93 -71 -109 -120 -125 -151 -186 -149 -466 -607 0 0 0 0 0 0 0 0 0 0 0 0 0 0 0 0 0 0 0 0 0 0 0 0 0 0 0 0 0
0 0 0 0 0 0 0 0 0 -33 -92 -114 -135 -123 -136 -150 -248 -368 -487 0 0 0 0 0 0 0 0 0 0 0 0 0 0 0 0 0 0 0 0 0 0 0 0 0 0 0 0 0 0
0 0 0 0 0 0 0 0 0 -78 -110 -190 -260 -183 -165 -310 -453 -336 -518 0 0 0 0 0 0 0 0 0 0 0 0 0 0 0 0 0 0 0 0 0 0 0 0 0 0 0 0 0 0
0 0 0 0 0 0 0 0 0 -167 -118 -141 -297 -351 -285 -404 -439 -520 -187 0 0 0 0 0 0 0 0 0 0 0 0 0 0 0 0 0 0 0 0 0 0 0 0 0 0 0 0 0 0
0 0 0 0 0 0 0 0 0 -182 -110 -147 -219 -340 -431 -532 -607 -596 -649 0 0 0 0 0 0 0 0 0 0 0 0 0 0 0 0 0 0 0 0 0 0 0 0 0 0 0 0 0 0
0 0 0 0 0 0 0 0 0 -49 -130 -171 -208 -276 -408 -488 -543 -584 -615 -47 0 0 0 0 0 0 0 0 0 0 0 0 0 0 0 0 0 0 0 0 0 0 0 0 0 0 0 0 0
0 0 0 0 0 0 0 0 0 0 0 0 -16 -286 -348 -471 -558 -557 -589 -1 0 0 0 0 0 0 0 0 0 0 0 0 0 0 0 0 0 0 0 0 0 0 0 0 0 0 0 0 0
0 0 0 0 0 0 0 0 0 0 -44 0 0 -266 -353 -471 -499 -510 -527 0 0 0 0 0 0 0 0 0 0 0 0 0 0 0 0 0 0 0 0 0 0 0 0 0 0 0 0 0 0
0 0 0 0 0 0 0 0 -180 -233 -177 -347 0 -137 -414 -425 -440 -473 -475 -16 0 0 0 0 0 0 0 0 0 0 0 0 0 0 0 0 0 0 0 0 0 0 0 0 0 0 0 0 -1
0 0 0 0 0 0 0 0 0 0 -174 -364 -434 -479 -451 -418 -390 -342 -393 0 -212 -75 0 0 0 0 0 0 0 0 0 0 0 0 0 0 0 0 0 0 0 0 0 0 0 0 0 -1 0
0 0 0 0 0 0 0 0 0 0 0 0 -339 -347 -348 -306 -253 -267 -81 0 0 0 0 0 0 0 0 0 0 0 0 0 0 0 0 0 0 0 0 0 0 0 0 0 -2 0 0 0 0
0 0 0 0 0 0 0 0 0 0 0 -309 -300 -242 -237 -208 -159 -124 -107 0 0 0 0 0 0 0 0 0 0 0 0 0 0 0 0 0 0 0 0 0 0 0 0 -6 -6 0 0 0 0
0 0 0 0 0 0 0 0 0 0 0 -233 -227 -189 -183 -182 -171 -158 0 0 0 0 0 0 0 0 0 0 0 0 0 0 0 0 0 0 0 0 0 0 -3 0 -15 -11 0 0 0 0 0
0 0 0 0 0 0 0 0 0 0 -113 -216 -225 -227 -142 0 0 0 0 0 0 0 0 0 0 0 0 0 0 0 0 0 0 0 0 0 0 0 0 0 -3 -22 -22 -2 0 0 0 0 0
0 0 0 0 0 0 0 0 0 0 0 0 0 0 0 0 0 0 0 0 0 0 0 0 0 0 0 0 0 0 0 0 0 0 0 0 0 0 0 0 0 0 0 0 0 0 -28 -40 -30
0 0 0 0 0 0 0 0 0 0 0 0 0 0 0 0 0 0 0 0 0 0 0 0 0 0 0 0 0 0 0 0 0 0 0 0 0 0 0 0 0 0 -18 0 0 0 -26 -21 -6
0 0 0 0 0 0 0 0 0 0 0 0 0 0 0 0 0 0 0 0 0 0 0 0 0 0 0 0 0 0 0 0 0 0 0 0 0 0 0 0 0 0 0 0 -32 -20 -21 -10 0
0 0 0 0 0 0 0 0 0 0 0 0 0 0 0 0 0 0 0 0 0 0 0 0 0 0 0 0 0 0 0 0 0 0 0 0 0 0 0 0 0 0 0 0 -46 -39 0 -11 0
Wind_Speed
22 22 17 15 16 18 20 19 20 22 22 21 21 23 25 21 17 15 21 17 18 20 20 19 19 19 19 19 19 19 19 19 19 19 20 19 19 19 19 19 19 19 20 20 21 21 22 22 23
23 19 16 15 17 19 19 15 18 19 23 25 28 30 22 13 16 19 20 21 20 20 20 20 20 20 19 19 19 18 18 18 18 18 18 19 19 19 19 20 20 21 21 22 23 23 24 24 25
20 17 16 15 17 20 18 14 13 14 17 21 19 19 20 19 19 18 17 19 18 18 17 18 19 19 19 19 18 18 18 18 18 18 18 18 19 20 20 21 22 23 24 24 25 26 27 28 28
18 16 15 15 20 18 16 13 12 12 15 15 18 21 21 18 22 16 17 18 18 18 17 17 17 18 18 18 18 18 18 18 18 18 19 19 20 21 21 22 23 24 25 26 27 28 29 29 30
16 14 13 16 20 18 13 9 10 11 16 17 18 18 19 19 22 22 21 19 18 17 17 19 16 16 17 17 17 18 19 19 19 20 20 20 22 23 22 24 25 26 27 28 29 30 30 30 31
12 12 12 16 18 18 14 10 9 11 14 16 18 19 20 24 23 23 21 19 19 18 19 18 16 17 18 18 18 19 19 20 20 21 21 22 22 23 24 25 26 27 28 28 30 31 31 32 32
9 10 11 14 18 19 15 9 5 7 13 14 18 19 21 23 20 20 19 18 17 19 19 18 18 18 19 19 18 18 19 20 20 21 21 22 23 24 26 27 28 29 29 31 32 33 33 34 35
9 10 11 14 16 24 16 10 8 6 9 14 15 16 17 20 22 18 17 17 19 20 20 18 17 16 15 15 17 18 19 20 21 22 22 23 25 26 28 29 30 30 31 33 34 35 36 36 37
8 10 11 15 16 24 18 9 10 7 7 10 13 15 18 22 20 19 19 17 20 20 19 18 17 15 15 15 16 17 18 20 21 23 24 24 26 28 29 31 32 32 33 35 37 38 38 39 39
8 8 11 15 18 26 17 8 8 8 6 6 9 13 20 21 21 20 20 18 17 16 15 15 15 14 14 14 15 16 18 20 22 23 24 26 27 29 30 32 33 35 35 38 38 39 40 39 39
9 8 14 13 4 19 10 6 6 6 4 6 8 12 16 15 16 16 15 13 14 13 12 13 13 13 14 15 16 17 17 19 22 24 26 27 29 31 32 33 35 37 37 39 40 40 40 40 39
14 9 13 19 2 15 8 7 5 2 6 8 10 15 15 14 13 13 11 12 11 11 10 11 11 12 12 14 17 19 19 21 23 25 26 30 33 34 35 36 37 38 39 40 39 40 40 40 40
17 27 27 10 8 11 10 6 4 2 5 6 9 9 11 11 10 10 11 12 13 11 11 11 11 11 12 15 17 19 20 21 23 26 29 32 34 36 37 38 40 40 40 40 42 41 41 42 43
21 23 26 16 11 13 8 9 4 2 5 4 7 8 10 11 9 8 10 11 11 11 10 10 11 12 13 16 18 19 20 21 23 26 29 31 34 36 37 39 40 40 42 44 44 44 44 45 45
21 22 20 16 17 16 9 8 3 5 11 6 7 9 8 7 8 11 12 10 11 10 10 10 11 12 13 15 18 19 20 20 22 26 30 31 34 36 37 38 40 42 44 45 45 46 45 46 45
20 18 23 20 21 15 12 7 6 2 9 5 5 5 7 8 9 8 8 8 8 10 10 9 10 11 13 15 17 18 19 21 24 27 30 32 35 35 38 40 42 43 44 44 44 45 46 46 47
19 22 26 27 23 19 6 9 7 3 5 4 5 5 5 5 4 7 8 6 7 7 8 8 9 11 13 15 17 19 21 23 25 29 31 33 35 36 38 40 42 43 46 46 46 45 45 48 48
22 27 24 24 24 22 16 15 8 6 6 5 5 5 5 7 7 4 3 3 4 5 6 8 10 12 13 15 18 20 23 24 25 31 32 34 35 36 38 41 43 44 47 47 46 48 45 46 47
22 21 20 20 24 23 22 21 18 15 13 12 6 5 5 4 2 2 2 3 2 5 6 10 12 12 14 16 18 21 25 26 27 30 32 34 35 36 38 42 45 45 47 48 46 44 45 44 42
18 18 23 21 27 18 19 20 19 18 18 16 6 8 8 6 4 4 3 3 3 6 9 13 13 14 15 17 20 23 24 26 29 30 32 33 35 37 40 44 45 46 47 47 45 43 43 40 38
19 21 24 23 22 18 16 17 19 21 22 23 21 11 8 8 7 6 5 5 6 10 12 11 13 15 17 18 22 24 27 29 32 32 34 35 38 40 44 43 45 47 45 45 42 40 38 37 34
21 21 22 23 24 22 21 20 19 24 23 25 22 14 11 8 8 8 9 9 9 11 17 15 16 17 17 18 24 28 32 34 34 35 35 38 38 42 43 42 44 44 40 39 35 34 33 33 35
22 22 23 22 24 23 23 19 22 23 25 26 22 16 13 10 5 6 10 15 17 22 21 24 17 18 18 22 28 32 34 34 34 35 38 40 41 41 40 41 41 38 36 33 31 33 32 31 30
20 24 23 23 22 22 20 20 21 22 22 22 19 16 13 9 7 8 11 19 30 29 20 15 17 24 28 30 32 33 33 34 37 40 42 42 42 42 41 39 34 34 32 31 29 31 31 31 29
25 28 29 25 24 22 21 21 18 17 17 16 15 14 13 12 12 15 18 22 22 19 21 23 25 29 31 31 32 31 33 36 39 40 42 43 42 41 39 35 31 29 28 28 30 30 30 29 28
26 19 21 26 26 24 22 20 18 17 17 15 15 14 15 16 17 16 17 21 21 24 26 26 29 30 32 33 32 34 37 38 40 41 39 38 38 37 35 32 29 28 28 28 30 30 29 28 27
22 22 20 21 21 23 21 19 19 14 15 15 15 15 16 16 16 17 17 21 23 24 26 29 31 33 33 34 36 37 38 41 42 38 34 32 31 33 31 29 27 28 28 29 32 31 30 29 27
21 17 22 21 25 27 21 21 19 13 12 14 14 14 16 17 18 19 20 21 24 28 33 34 34 35 35 37 38 39 39 37 33 31 31 30 30 28 28 28 28 30 31 30 32 32 29 29 25
20 23 21 19 18 24 27 23 18 9 10 11 13 14 15 17 18 22 24 26 27 30 33 35 37 37 38 38 37 37 34 32 30 29 29 28 26 27 26 27 29 31 30 29 31 32 30 28 26
19 24 21 22 23 21 23 24 18 10 9 9 10 12 14 16 19 23 25 28 31 33 36 39 38 38 36 35 34 32 31 30 30 30 28 27 25 24 24 26 27 27 28 28 29 31 31 28 26
Wind_Direction
312 316 336 340 356 353 332 343 356 357 351 10 354 280 238 249 199 65 106 85 84 88 81 73 64 61 57 56 54 52 49 45 44 42 39 37 33 30 27 22 15 8 0 355 350 344 338 333 329
313 335 333 349 354 344 343 3 358 21 44 64 64 82 141 188 153 94 92 98 92 90 83 76 72 66 58 56 54 50 46 41 37 33 29 26 24 20 17 15 12 8 3 356 350 346 342 338 333
311 325 334 347 355 344 346 3 19 8 63 22 33 99 98 97 94 89 85 90 85 78 75 73 72 67 63 57 53 48 42 36 30 26 21 16 14 13 11 8 1 354 350 347 344 340 334 329 327
308 319 336 350 344 352 2 39 27 6 1 31 54 49 73 119 112 78 80 84 81 78 77 72 66 65 61 56 51 47 42 33 26 21 18 14 9 3 6 3 356 348 347 343 339 334 331 329 325
306 325 341 346 341 348 1 34 42 31 356 354 49 47 64 95 90 90 95 89 83 77 76 78 66 61 59 54 48 42 36 35 33 26 21 21 17 12 12 4 359 353 348 343 339 335 333 331 329
321 337 346 338 350 356 4 8 22 25 35 22 54 38 75 105 98 101 92 90 87 80 86 82 68 64 63 61 56 45 39 34 32 28 24 19 13 8 3 358 354 351 348 347 343 340 338 336 332
354 351 0 11 355 356 12 71 58 47 63 53 73 50 91 112 96 91 90 84 78 87 85 80 75 69 68 63 53 41 34 31 26 21 15 11 8 3 0 355 351 348 349 344 340 337 335 332 329
346 19 20 12 10 308 12 13 35 76 64 70 85 59 90 114 104 85 77 77 86 87 86 78 64 57 52 47 41 35 30 27 22 15 11 6 1 357 354 350 347 347 345 342 338 336 333 330 328
17 15 24 20 9 330 7 13 21 32 62 84 110 89 111 108 102 91 90 82 90 89 85 77 66 51 47 38 31 27 21 16 12 6 3 357 355 353 350 347 345 343 341 338 336 334 332 329 326
26 31 32 14 360 289 1 34 72 68 49 50 82 68 111 116 117 110 108 102 96 88 77 70 60 51 28 23 21 22 15 11 8 6 2 359 355 351 349 346 344 342 340 338 335 334 332 329 328
33 18 1 236 14 347 13 36 35 56 34 128 123 113 121 120 120 116 104 95 91 83 75 70 61 46 32 20 16 13 11 4 358 355 354 353 351 347 345 344 341 339 337 336 334 333 333 331 329
338 345 352 251 37 350 14 21 10 74 20 125 130 134 133 137 133 123 103 98 89 85 78 71 61 50 33 16 6 1 0 357 353 353 352 346 340 340 340 340 339 338 337 335 335 334 333 331 329
335 309 286 23 41 16 14 17 20 6 22 111 126 127 140 142 127 116 107 97 96 92 87 80 65 54 42 19 10 4 2 1 360 355 349 346 343 340 338 336 335 334 335 334 331 330 330 327 325
328 337 314 358 17 1 19 3 26 52 119 115 140 146 146 148 138 116 123 116 103 98 90 79 60 45 36 23 18 12 9 6 2 357 352 350 347 343 340 337 336 334 331 328 327 326 324 323 322
329 325 332 346 346 346 24 19 11 140 152 146 155 162 157 165 155 162 151 133 116 104 91 72 58 44 34 26 18 14 9 7 2 356 351 350 346 344 342 339 337 334 331 328 326 323 322 321 320
327 339 323 334 346 345 341 335 341 101 152 166 155 171 176 176 177 163 151 136 118 106 94 69 52 38 27 19 12 7 4 360 355 352 350 348 346 344 341 339 337 337 334 332 329 326 323 321 320
329 329 322 320 339 351 327 312 305 210 180 200 189 183 188 181 182 172 158 142 122 107 79 60 35 21 19 16 13 5 0 356 353 350 347 346 343 342 340 339 337 336 334 331 328 326 324 320 320
324 322 328 333 338 346 342 331 327 290 222 242 233 226 200 187 189 180 154 117 82 57 46 41 15 15 23 16 7 6 2 358 352 344 343 342 341 340 339 338 337 335 333 330 328 324 324 322 320
325 335 339 343 343 343 346 340 335 326 320 320 270 265 227 234 242 219 158 129 72 1 357 353 355 6 12 5 4 356 348 347 343 340 341 341 340 339 338 336 335 335 332 329 329 328 326 325 325
350 349 338 341 340 356 359 351 347 341 330 327 302 266 261 266 249 243 217 257 308 327 333 338 346 353 0 358 354 350 347 343 339 338 338 338 338 338 336 334 334 332 329 329 328 328 327 327 330
353 345 340 341 347 354 359 348 348 343 344 334 322 311 291 266 253 243 245 275 309 323 323 333 343 349 349 352 349 348 343 340 336 336 336 337 335 335 334 334 333 331 329 327 326 328 329 328 331
345 348 347 346 343 335 337 324 329 329 332 335 337 332 321 306 294 285 292 294 308 324 324 325 343 343 348 348 343 339 337 334 335 334 336 336 337 335 335 335 333 332 332 331 332 334 333 332 329
347 348 343 347 345 342 333 325 325 329 328 331 342 344 342 342 325 327 313 313 309 328 323 328 348 347 343 342 340 337 335 336 336 336 335 335 335 337 337 337 336 337 337 337 337 335 334 334 333
358 347 347 349 348 342 346 342 334 333 334 337 343 351 352 12 16 353 343 318 323 324 331 346 342 340 340 340 340 339 338 338 336 335 334 335 335 336 337 339 341 341 342 342 341 336 334 334 334
344 338 331 337 342 341 345 338 338 344 352 1 5 5 3 1 359 346 340 345 349 356 351 344 343 339 343 344 344 343 341 338 336 335 334 334 335 337 338 342 346 348 349 347 341 338 338 339 339
337 346 340 331 334 338 341 338 340 349 351 6 5 5 359 351 351 357 1 1 360 356 353 349 345 344 344 343 342 341 338 337 335 334 335 336 338 341 345 348 352 353 352 348 344 343 345 344 342
341 335 343 337 342 339 341 340 342 343 352 359 359 4 7 9 12 11 5 1 359 357 353 347 343 341 340 339 338 337 337 336 336 339 341 344 349 350 354 356 360 357 354 348 344 346 344 343 343
343 350 335 341 331 331 339 336 332 342 352 2 10 13 12 13 11 11 7 1 352 345 342 342 341 339 338 338 338 338 338 340 345 350 353 353 352 355 355 357 356 354 350 352 350 349 355 352 356
337 336 340 343 341 333 331 335 343 347 352 4 16 17 17 11 7 357 352 352 349 347 345 342 340 339 338 339 341 342 345 349 352 353 354 356 358 358 356 355 351 350 357 358 354 357 356 358 3
358 345 346 335 334 335 333 331 345 350 7 22 18 15 9 4 355 350 340 343 343 342 341 340 340 340 343 345 347 351 353 353 352 353 356 357 360 1 1 356 354 357 360 360 2 359 2 3 1